Malaga, Spain

4:23 AM CEST on May 29, 2017 (GMT +0200)
Malaga

Weather History for LEMG - June, 2013

Change the Weather History Date:

Thursday, June 27, 2013

  Actual Average Record
Temperature  
Mean Temperature 70 °F -  
Max Temperature 77 °F 84 °F 98 °F (2003)
Min Temperature 62 °F 66 °F 62 °F (2013)
Cooling Degree Days 4    
Growing Degree Days 20 (Base 50)    
Moisture  
Dew Point 59 °F    
Average Humidity 70    
Maximum Humidity 88    
Minimum Humidity 48    
Precipitation  
Precipitation 0.00 in 0.00 in - ()
Sea Level Pressure  
Sea Level Pressure 30.14 in    
Wind  
Wind Speed 5 mph ()    
Max Wind Speed 10 mph    
Max Gust Speed -    
Visibility 6.5 miles    
Events      
Averages and records for this station are not official NWS values.
T = Trace of Precipitation, MM = Missing Value Source: Averaged Metar Reports

Daily Weather History Graph

Daily Weather History Graph

Search for Another Location

Airport or City:

Trip Planner

Search our weather history database for the weather conditions in past years. The results will help you decide how hot, cold, wet, or windy it might be!

Date:

Astronomy

Jun. 27, 2013 Rise Set
Actual Time 7:01 AM CEST 9:40 PM CEST
Civil Twilight 6:30 AM CEST 10:11 PM CEST
Nautical Twilight 5:52 AM CEST 10:49 PM CEST
Astronomical Twilight 5:09 AM CEST 11:31 PM CEST
Moon 12:01 AM CEST (6/27) 11:38 AM CEST (6/27)
Length of Visible Light 15h 40m
Length of Day
14h 39m
Waning Gibbous, 79% of the Moon is Illuminated
Jun 27
Waning Gibbous
Jun 30
Last Quarter
Jul 8
New
Jul 16
First Quarter
Jul 22
Full

Hourly Weather History & Observations

Time (CEST) Temp. Dew Point Humidity Pressure Visibility Wind Dir Wind Speed Gust Speed Precip Events Conditions
12:00 AM 68.0 °F 60.8 °F 78% 30.18 in 6.2 mi ESE 3.5 mph - N/A   Scattered Clouds
12:30 AM 68.0 °F 60.8 °F 78% 30.18 in 6.2 mi ESE 3.5 mph - N/A   Scattered Clouds
1:00 AM 68.0 °F 60.8 °F 78% 30.18 in 6.2 mi Variable 2.3 mph - N/A   Scattered Clouds
1:30 AM 66.2 °F 60.8 °F 83% 30.18 in 6.2 mi Calm Calm - N/A   Scattered Clouds
2:00 AM 66.2 °F 60.8 °F 83% 30.18 in 6.2 mi Calm Calm - N/A   Scattered Clouds
2:30 AM 66.2 °F 60.8 °F 83% 30.15 in 6.2 mi Calm Calm - N/A   Scattered Clouds
3:00 AM 66.2 °F 60.8 °F 83% 30.15 in 6.2 mi Calm Calm - N/A   Scattered Clouds
3:30 AM 64.4 °F 60.8 °F 88% 30.15 in 6.2 mi West 4.6 mph - N/A   Scattered Clouds
4:00 AM 64.4 °F 57.2 °F 77% 30.15 in 6.2 mi West 4.6 mph - N/A   Partly Cloudy
4:30 AM 62.6 °F 59.0 °F 88% 30.15 in 6.2 mi NW 3.5 mph - N/A   Partly Cloudy
5:00 AM 62.6 °F 59.0 °F 88% 30.15 in 6.2 mi WNW 6.9 mph - N/A   Partly Cloudy
5:30 AM 62.6 °F 57.2 °F 82% 30.15 in - WNW 5.8 mph - N/A   Clear
6:00 AM 62.6 °F 57.2 °F 82% 30.15 in - WNW 6.9 mph - N/A   Clear
6:30 AM 62.6 °F 57.2 °F 82% 30.15 in - WNW 8.1 mph - N/A   Clear
7:00 AM 60.8 °F 57.2 °F 88% 30.12 in - WNW 8.1 mph - N/A   Clear
7:30 AM 60.8 °F 55.4 °F 82% 30.12 in - WNW 9.2 mph - N/A   Clear
8:00 AM 64 °F 56 °F 67% 30.15 in 9 mi WNW 9.2 mph - -  
8:00 AM 62.6 °F 55.4 °F 77% 30.12 in - WNW 9.2 mph - N/A   Clear
8:30 AM 64.4 °F 55.4 °F 73% 30.12 in - WNW 6.9 mph - N/A   Clear
9:00 AM 66.2 °F 55.4 °F 68% 30.15 in - WNW 6.9 mph - N/A   Clear
9:30 AM 69.8 °F 57.2 °F 64% 30.15 in - Variable 2.3 mph - N/A   Clear
10:00 AM 73.4 °F 55.4 °F 53% 30.15 in - ESE 3.5 mph - N/A   Clear
10:30 AM 73.4 °F 55.4 °F 53% 30.15 in 6.2 mi SE 8.1 mph - N/A   Partly Cloudy
11:00 AM 73.4 °F 57.2 °F 57% 30.15 in 6.2 mi SE 9.2 mph - N/A   Partly Cloudy
11:30 AM 73.4 °F 57.2 °F 57% 30.15 in 6.2 mi SE 9.2 mph - N/A   Scattered Clouds
12:00 PM 71.6 °F 57.2 °F 60% 30.15 in 6.2 mi SE 10.4 mph - N/A   Scattered Clouds
12:30 PM 73.4 °F 59.0 °F 61% 30.18 in 6.2 mi SE 10.4 mph - N/A   Scattered Clouds
1:00 PM 73.4 °F 59.0 °F 61% 30.15 in 6.2 mi SE 9.2 mph - N/A   Scattered Clouds
1:30 PM 73.4 °F 59.0 °F 61% 30.18 in 6.2 mi SSE 10.4 mph - N/A   Scattered Clouds
2:00 PM 77 °F 61 °F 48% 30.17 in 12 mi SSE 9.2 mph - -   Partly Cloudy
2:00 PM 73.4 °F 60.8 °F 65% 30.15 in 6.2 mi SSE 9.2 mph - N/A   Scattered Clouds
2:30 PM 73.4 °F 59.0 °F 61% 30.15 in 6.2 mi SSE 10.4 mph - N/A   Scattered Clouds
3:00 PM 73.4 °F 60.8 °F 65% 30.15 in 6.2 mi SE 9.2 mph - N/A   Scattered Clouds
3:30 PM 73.4 °F 60.8 °F 65% 30.15 in 6.2 mi SSE 8.1 mph - N/A   Scattered Clouds
4:00 PM 73.4 °F 59.0 °F 61% 30.15 in 6.2 mi SE 8.1 mph - N/A   Partly Cloudy
4:30 PM 73.4 °F 59.0 °F 61% 30.15 in 6.2 mi SE 8.1 mph - N/A   Partly Cloudy
5:00 PM 73.4 °F 59.0 °F 61% 30.12 in 6.2 mi SE 8.1 mph - N/A   Partly Cloudy
5:30 PM 73.4 °F 60.8 °F 65% 30.12 in 6.2 mi SE 9.2 mph - N/A   Partly Cloudy
6:00 PM 73.4 °F 59.0 °F 61% 30.12 in 6.2 mi Variable 8.1 mph - N/A   Partly Cloudy
6:30 PM 73.4 °F 59.0 °F 61% 30.09 in 6.2 mi ESE 9.2 mph - N/A   Partly Cloudy
7:00 PM 71.6 °F 59.0 °F 64% 30.09 in 6.2 mi SSE 6.9 mph - N/A   Partly Cloudy
7:30 PM 71.6 °F 59.0 °F 64% 30.09 in 6.2 mi SSE 8.1 mph - N/A   Partly Cloudy
8:00 PM 74 °F 60 °F 51% 30.12 in 9 mi SE 6.9 mph - -  
8:00 PM 71.6 °F 59.0 °F 64% 30.09 in - SE 6.9 mph - N/A   Clear
8:30 PM 69.8 °F 59.0 °F 68% 30.09 in - SE 4.6 mph - N/A   Clear
9:00 PM 69.8 °F 59.0 °F 68% 30.12 in - SSE 4.6 mph - N/A   Clear
9:30 PM 69.8 °F 59.0 °F 68% 30.12 in - SE 3.5 mph - N/A   Clear
10:00 PM 68.0 °F 59.0 °F 73% 30.12 in - SE 5.8 mph - N/A   Clear
10:30 PM 68.0 °F 59.0 °F 73% 30.15 in - ESE 4.6 mph - N/A   Clear
11:00 PM 68.0 °F 59.0 °F 73% 30.15 in - SE 3.5 mph - N/A   Clear
11:30 PM 68.0 °F 59.0 °F 73% 30.15 in - ESE 2.3 mph - N/A   Clear